owner,sensor,date,latitude,longitude,vertical_datum,sea_water_temperature,qcFlag 
FIT,ioos:station:wmo:SIPF1:1,2019-09-01T00:45:00Z,27.8620,-80.4450,8.0,24.74,11111222 
FIT,ioos:station:wmo:SIPF1:1,2019-09-01T01:45:00Z,27.8620,-80.4450,8.0,25.96,11111222 
FIT,ioos:station:wmo:SIPF1:1,2019-09-01T02:45:00Z,27.8620,-80.4450,8.0,28.22,11111222 
FIT,ioos:station:wmo:SIPF1:1,2019-09-01T03:45:00Z,27.8620,-80.4450,8.0,27.87,11111222 
FIT,ioos:station:wmo:SIPF1:1,2019-09-01T04:45:00Z,27.8620,-80.4450,8.0,28.36,11111222 
FIT,ioos:station:wmo:SIPF1:1,2019-09-01T05:45:00Z,27.8620,-80.4450,8.0,28.15,11111222 
FIT,ioos:station:wmo:SIPF1:1,2019-09-01T06:45:00Z,27.8620,-80.4450,8.0,28.1,11111222 
FIT,ioos:station:wmo:SIPF1:1,2019-09-01T07:45:00Z,27.8620,-80.4450,8.0,27.96,11111222 
FIT,ioos:station:wmo:SIPF1:1,2019-09-01T08:45:00Z,27.8620,-80.4450,8.0,27.92,11111222 
FIT,ioos:station:wmo:SIPF1:1,2019-09-01T09:45:00Z,27.8620,-80.4450,8.0,27.89,11111222 
FIT,ioos:station:wmo:SIPF1:1,2019-09-01T10:45:00Z,27.8620,-80.4450,8.0,27.51,11111222 
FIT,ioos:station:wmo:SIPF1:1,2019-09-01T11:45:00Z,27.8620,-80.4450,8.0,26.16,11111222 
FIT,ioos:station:wmo:SIPF1:1,2019-09-01T12:45:00Z,27.8620,-80.4450,8.0,28.14,11111222 
FIT,ioos:station:wmo:SIPF1:1,2019-09-01T13:45:00Z,27.8620,-80.4450,8.0,28.13,11111222 
FIT,ioos:station:wmo:SIPF1:1,2019-09-01T14:45:00Z,27.8620,-80.4450,8.0,28.57,11111222 
FIT,ioos:station:wmo:SIPF1:1,2019-09-01T15:45:00Z,27.8620,-80.4450,8.0,28.48,11111222 
FIT,ioos:station:wmo:SIPF1:1,2019-09-01T16:45:00Z,27.8620,-80.4450,8.0,28.13,11111222 
FIT,ioos:station:wmo:SIPF1:1,2019-09-01T17:45:00Z,27.8620,-80.4450,8.0,27.98,11111222 
FIT,ioos:station:wmo:SIPF1:1,2019-09-01T18:45:00Z,27.8620,-80.4450,8.0,28.25,11111222 
FIT,ioos:station:wmo:SIPF1:1,2019-09-01T19:45:00Z,27.8620,-80.4450,8.0,28.27,11111222 
FIT,ioos:station:wmo:SIPF1:1,2019-09-01T20:45:00Z,27.8620,-80.4450,8.0,28.35,11111222 
FIT,ioos:station:wmo:SIPF1:1,2019-09-01T21:45:00Z,27.8620,-80.4450,8.0,28.3,11111222 
FIT,ioos:station:wmo:SIPF1:1,2019-09-01T22:45:00Z,27.8620,-80.4450,8.0,28.22,11111222 
FIT,ioos:station:wmo:SIPF1:1,2019-09-01T23:45:00Z,27.8620,-80.4450,8.0,28.18,11111222 
FIT,ioos:station:wmo:SIPF1:1,2019-09-02T00:45:00Z,27.8620,-80.4450,8.0,28.38,11111222 
FIT,ioos:station:wmo:SIPF1:1,2019-09-02T01:45:00Z,27.8620,-80.4450,8.0,28.19,11111222 
FIT,ioos:station:wmo:SIPF1:1,2019-09-02T02:45:00Z,27.8620,-80.4450,8.0,28.29,11111222 
FIT,ioos:station:wmo:SIPF1:1,2019-09-02T03:45:00Z,27.8620,-80.4450,8.0,28.3,11111222 
FIT,ioos:station:wmo:SIPF1:1,2019-09-02T04:45:00Z,27.8620,-80.4450,8.0,28.1,11111222 
FIT,ioos:station:wmo:SIPF1:1,2019-09-02T05:45:00Z,27.8620,-80.4450,8.0,28.22,11111222 
FIT,ioos:station:wmo:SIPF1:1,2019-09-02T06:45:00Z,27.8620,-80.4450,8.0,27.78,11111222 
FIT,ioos:station:wmo:SIPF1:1,2019-09-02T07:45:00Z,27.8620,-80.4450,8.0,27.1,11111222 
FIT,ioos:station:wmo:SIPF1:1,2019-09-02T08:45:00Z,27.8620,-80.4450,8.0,28.14,11111222 
FIT,ioos:station:wmo:SIPF1:1,2019-09-02T09:45:00Z,27.8620,-80.4450,8.0,27.21,11111222 
FIT,ioos:station:wmo:SIPF1:1,2019-09-02T10:45:00Z,27.8620,-80.4450,8.0,27.81,11111222 
FIT,ioos:station:wmo:SIPF1:1,2019-09-02T11:45:00Z,27.8620,-80.4450,8.0,27.88,11111222 
FIT,ioos:station:wmo:SIPF1:1,2019-09-02T12:45:00Z,27.8620,-80.4450,8.0,27.95,11111222 
FIT,ioos:station:wmo:SIPF1:1,2019-09-02T15:45:00Z,27.8620,-80.4450,8.0,26.84,11111222 
FIT,ioos:station:wmo:SIPF1:1,2019-09-02T16:45:00Z,27.8620,-80.4450,8.0,28.07,11111222 
FIT,ioos:station:wmo:SIPF1:1,2019-09-02T17:45:00Z,27.8620,-80.4450,8.0,28.08,11111222 
FIT,ioos:station:wmo:SIPF1:1,2019-09-02T18:45:00Z,27.8620,-80.4450,8.0,27.02,11111222 
FIT,ioos:station:wmo:SIPF1:1,2019-09-02T19:45:00Z,27.8620,-80.4450,8.0,28.23,11111222 
FIT,ioos:station:wmo:SIPF1:1,2019-09-02T20:45:00Z,27.8620,-80.4450,8.0,25.41,11111222 
FIT,ioos:station:wmo:SIPF1:1,2019-09-02T21:45:00Z,27.8620,-80.4450,8.0,27.48,11111222 
FIT,ioos:station:wmo:SIPF1:1,2019-09-02T22:45:00Z,27.8620,-80.4450,8.0,27.15,11111222 
FIT,ioos:station:wmo:SIPF1:1,2019-09-02T23:45:00Z,27.8620,-80.4450,8.0,27.08,11111222 
FIT,ioos:station:wmo:SIPF1:1,2019-09-03T00:45:00Z,27.8620,-80.4450,8.0,27.46,11111222 
FIT,ioos:station:wmo:SIPF1:1,2019-09-03T01:45:00Z,27.8620,-80.4450,8.0,27.26,11111222 
FIT,ioos:station:wmo:SIPF1:1,2019-09-03T02:45:00Z,27.8620,-80.4450,8.0,27.67,11111222 
FIT,ioos:station:wmo:SIPF1:1,2019-09-03T03:45:00Z,27.8620,-80.4450,8.0,27.86,11111222 
FIT,ioos:station:wmo:SIPF1:1,2019-09-03T04:45:00Z,27.8620,-80.4450,8.0,27.8,11111222 
FIT,ioos:station:wmo:SIPF1:1,2019-09-03T05:45:00Z,27.8620,-80.4450,8.0,27.76,11111222 
FIT,ioos:station:wmo:SIPF1:1,2019-09-03T06:45:00Z,27.8620,-80.4450,8.0,28.09,11111222 
FIT,ioos:station:wmo:SIPF1:1,2019-09-03T07:45:00Z,27.8620,-80.4450,8.0,28.14,11111222 
FIT,ioos:station:wmo:SIPF1:1,2019-09-03T08:45:00Z,27.8620,-80.4450,8.0,27.51,11111222 
FIT,ioos:station:wmo:SIPF1:1,2019-09-03T09:45:00Z,27.8620,-80.4450,8.0,27.97,11111222 
FIT,ioos:station:wmo:SIPF1:1,2019-09-03T10:45:00Z,27.8620,-80.4450,8.0,27.98,11111222 
FIT,ioos:station:wmo:SIPF1:1,2019-09-03T11:45:00Z,27.8620,-80.4450,8.0,27.67,11111222 
FIT,ioos:station:wmo:SIPF1:1,2019-09-03T12:45:00Z,27.8620,-80.4450,8.0,28.05,11111222 
FIT,ioos:station:wmo:SIPF1:1,2019-09-03T13:45:00Z,27.8620,-80.4450,8.0,27.92,11111222 
FIT,ioos:station:wmo:SIPF1:1,2019-09-03T14:45:00Z,27.8620,-80.4450,8.0,26.82,11111222 
FIT,ioos:station:wmo:SIPF1:1,2019-09-03T15:45:00Z,27.8620,-80.4450,8.0,25.52,11111222 
FIT,ioos:station:wmo:SIPF1:1,2019-09-03T16:45:00Z,27.8620,-80.4450,8.0,25.65,11111222 
FIT,ioos:station:wmo:SIPF1:1,2019-09-03T17:45:00Z,27.8620,-80.4450,8.0,26.2,11111222 
FIT,ioos:station:wmo:SIPF1:1,2019-09-03T18:45:00Z,27.8620,-80.4450,8.0,27.14,11111222 
FIT,ioos:station:wmo:SIPF1:1,2019-09-03T19:45:00Z,27.8620,-80.4450,8.0,25.49,11111222 
FIT,ioos:station:wmo:SIPF1:1,2019-09-03T20:45:00Z,27.8620,-80.4450,8.0,24.69,11111222 
FIT,ioos:station:wmo:SIPF1:1,2019-09-03T21:45:00Z,27.8620,-80.4450,8.0,24.53,11111222 
FIT,ioos:station:wmo:SIPF1:1,2019-09-03T22:45:00Z,27.8620,-80.4450,8.0,23.61,11111222 
FIT,ioos:station:wmo:SIPF1:1,2019-09-03T23:45:00Z,27.8620,-80.4450,8.0,24.12,11111222 
FIT,ioos:station:wmo:SIPF1:1,2019-09-04T00:45:00Z,27.8620,-80.4450,8.0,24.2,11111222 
FIT,ioos:station:wmo:SIPF1:1,2019-09-04T01:45:00Z,27.8620,-80.4450,8.0,24.69,11111222 
FIT,ioos:station:wmo:SIPF1:1,2019-09-04T02:45:00Z,27.8620,-80.4450,8.0,24.21,11111222 
FIT,ioos:station:wmo:SIPF1:1,2019-09-04T03:45:00Z,27.8620,-80.4450,8.0,24.25,11111222 
FIT,ioos:station:wmo:SIPF1:1,2019-09-04T04:45:00Z,27.8620,-80.4450,8.0,23.96,11111222 
FIT,ioos:station:wmo:SIPF1:1,2019-09-04T05:45:00Z,27.8620,-80.4450,8.0,23.82,11111222 
FIT,ioos:station:wmo:SIPF1:1,2019-09-04T06:45:00Z,27.8620,-80.4450,8.0,24.34,11111222 
FIT,ioos:station:wmo:SIPF1:1,2019-09-04T07:45:00Z,27.8620,-80.4450,8.0,24.82,11111222 
FIT,ioos:station:wmo:SIPF1:1,2019-09-04T08:45:00Z,27.8620,-80.4450,8.0,23.85,11111222 
FIT,ioos:station:wmo:SIPF1:1,2019-09-04T09:45:00Z,27.8620,-80.4450,8.0,23.28,11111222 
FIT,ioos:station:wmo:SIPF1:1,2019-09-04T10:45:00Z,27.8620,-80.4450,8.0,23.55,11111222 
FIT,ioos:station:wmo:SIPF1:1,2019-09-04T11:45:00Z,27.8620,-80.4450,8.0,23.6,11111222 
FIT,ioos:station:wmo:SIPF1:1,2019-09-04T12:45:00Z,27.8620,-80.4450,8.0,24.62,11111222 
FIT,ioos:station:wmo:SIPF1:1,2019-09-04T13:45:00Z,27.8620,-80.4450,8.0,25.13,11111222 
FIT,ioos:station:wmo:SIPF1:1,2019-09-04T14:45:00Z,27.8620,-80.4450,8.0,25.51,11111222 
FIT,ioos:station:wmo:SIPF1:1,2019-09-04T15:45:00Z,27.8620,-80.4450,8.0,26.74,11111222 
FIT,ioos:station:wmo:SIPF1:1,2019-09-04T16:45:00Z,27.8620,-80.4450,8.0,27.24,11111222 
FIT,ioos:station:wmo:SIPF1:1,2019-09-04T17:45:00Z,27.8620,-80.4450,8.0,27.53,11111222 
FIT,ioos:station:wmo:SIPF1:1,2019-09-04T18:45:00Z,27.8620,-80.4450,8.0,28.99,11111222 
FIT,ioos:station:wmo:SIPF1:1,2019-09-04T19:45:00Z,27.8620,-80.4450,8.0,29.92,11111222 
FIT,ioos:station:wmo:SIPF1:1,2019-09-04T20:45:00Z,27.8620,-80.4450,8.0,29.98,11111222 
FIT,ioos:station:wmo:SIPF1:1,2019-09-04T21:45:00Z,27.8620,-80.4450,8.0,29.7,11111222 
FIT,ioos:station:wmo:SIPF1:1,2019-09-04T22:45:00Z,27.8620,-80.4450,8.0,29.27,11111222 
FIT,ioos:station:wmo:SIPF1:1,2019-09-04T23:45:00Z,27.8620,-80.4450,8.0,29.03,11111222 
FIT,ioos:station:wmo:SIPF1:1,2019-09-05T00:45:00Z,27.8620,-80.4450,8.0,28.71,11111222 
FIT,ioos:station:wmo:SIPF1:1,2019-09-05T01:45:00Z,27.8620,-80.4450,8.0,28.38,11111222 
FIT,ioos:station:wmo:SIPF1:1,2019-09-05T02:45:00Z,27.8620,-80.4450,8.0,27.48,11111222 
FIT,ioos:station:wmo:SIPF1:1,2019-09-05T03:45:00Z,27.8620,-80.4450,8.0,27.06,11111222 
FIT,ioos:station:wmo:SIPF1:1,2019-09-05T04:45:00Z,27.8620,-80.4450,8.0,26.66,11111222 
FIT,ioos:station:wmo:SIPF1:1,2019-09-05T05:45:00Z,27.8620,-80.4450,8.0,26.48,11111222 
FIT,ioos:station:wmo:SIPF1:1,2019-09-05T06:45:00Z,27.8620,-80.4450,8.0,26.47,11111222 
FIT,ioos:station:wmo:SIPF1:1,2019-09-05T07:45:00Z,27.8620,-80.4450,8.0,26.09,11111222 
FIT,ioos:station:wmo:SIPF1:1,2019-09-05T08:45:00Z,27.8620,-80.4450,8.0,25.9,11111222 
FIT,ioos:station:wmo:SIPF1:1,2019-09-05T09:45:00Z,27.8620,-80.4450,8.0,25.72,11111222 
FIT,ioos:station:wmo:SIPF1:1,2019-09-05T10:45:00Z,27.8620,-80.4450,8.0,25.61,11111222 
FIT,ioos:station:wmo:SIPF1:1,2019-09-05T11:45:00Z,27.8620,-80.4450,8.0,25.36,11111222 
FIT,ioos:station:wmo:SIPF1:1,2019-09-05T12:45:00Z,27.8620,-80.4450,8.0,26.58,11111222 
FIT,ioos:station:wmo:SIPF1:1,2019-09-05T13:45:00Z,27.8620,-80.4450,8.0,28.66,11111222 
FIT,ioos:station:wmo:SIPF1:1,2019-09-05T14:45:00Z,27.8620,-80.4450,8.0,29.91,11111222 
FIT,ioos:station:wmo:SIPF1:1,2019-09-05T15:45:00Z,27.8620,-80.4450,8.0,30.67,11111222 
FIT,ioos:station:wmo:SIPF1:1,2019-09-05T16:45:00Z,27.8620,-80.4450,8.0,31.25,11111222 
FIT,ioos:station:wmo:SIPF1:1,2019-09-05T17:45:00Z,27.8620,-80.4450,8.0,31.9,11111222 
FIT,ioos:station:wmo:SIPF1:1,2019-09-05T18:45:00Z,27.8620,-80.4450,8.0,32.57,11111222 
FIT,ioos:station:wmo:SIPF1:1,2019-09-05T19:45:00Z,27.8620,-80.4450,8.0,33.0,11111222 
FIT,ioos:station:wmo:SIPF1:1,2019-09-05T20:45:00Z,27.8620,-80.4450,8.0,33.14,11111222 
FIT,ioos:station:wmo:SIPF1:1,2019-09-05T21:45:00Z,27.8620,-80.4450,8.0,33.45,11111222 
FIT,ioos:station:wmo:SIPF1:1,2019-09-05T22:45:00Z,27.8620,-80.4450,8.0,32.8,11111222 
FIT,ioos:station:wmo:SIPF1:1,2019-09-05T23:45:00Z,27.8620,-80.4450,8.0,31.24,11111222 
FIT,ioos:station:wmo:SIPF1:1,2019-09-06T00:45:00Z,27.8620,-80.4450,8.0,29.66,11111222 
FIT,ioos:station:wmo:SIPF1:1,2019-09-06T01:45:00Z,27.8620,-80.4450,8.0,28.42,11111222 
FIT,ioos:station:wmo:SIPF1:1,2019-09-06T02:45:00Z,27.8620,-80.4450,8.0,27.86,11111222 
FIT,ioos:station:wmo:SIPF1:1,2019-09-06T03:45:00Z,27.8620,-80.4450,8.0,27.2,11111222 
FIT,ioos:station:wmo:SIPF1:1,2019-09-06T04:45:00Z,27.8620,-80.4450,8.0,26.43,11111222 
FIT,ioos:station:wmo:SIPF1:1,2019-09-06T07:00:00Z,27.8620,-80.4450,8.0,26.18,11111222 
FIT,ioos:station:wmo:SIPF1:1,2019-09-06T08:00:00Z,27.8620,-80.4450,8.0,26.34,11111222 
FIT,ioos:station:wmo:SIPF1:1,2019-09-06T08:45:00Z,27.8620,-80.4450,8.0,26.23,11111222 
FIT,ioos:station:wmo:SIPF1:1,2019-09-06T09:45:00Z,27.8620,-80.4450,8.0,26.22,11111222 
FIT,ioos:station:wmo:SIPF1:1,2019-09-06T10:45:00Z,27.8620,-80.4450,8.0,26.03,11111222 
FIT,ioos:station:wmo:SIPF1:1,2019-09-06T11:45:00Z,27.8620,-80.4450,8.0,26.12,11111222 
FIT,ioos:station:wmo:SIPF1:1,2019-09-06T12:45:00Z,27.8620,-80.4450,8.0,27.65,11111222 
FIT,ioos:station:wmo:SIPF1:1,2019-09-06T13:45:00Z,27.8620,-80.4450,8.0,29.16,11111222 
FIT,ioos:station:wmo:SIPF1:1,2019-09-06T14:45:00Z,27.8620,-80.4450,8.0,30.2,11111222 
FIT,ioos:station:wmo:SIPF1:1,2019-09-06T15:45:00Z,27.8620,-80.4450,8.0,31.19,11111222 
FIT,ioos:station:wmo:SIPF1:1,2019-09-06T16:45:00Z,27.8620,-80.4450,8.0,32.45,11111222 
FIT,ioos:station:wmo:SIPF1:1,2019-09-06T17:45:00Z,27.8620,-80.4450,8.0,32.1,11111222 
FIT,ioos:station:wmo:SIPF1:1,2019-09-06T18:45:00Z,27.8620,-80.4450,8.0,32.6,11111222 
FIT,ioos:station:wmo:SIPF1:1,2019-09-06T19:45:00Z,27.8620,-80.4450,8.0,33.15,11111222 
FIT,ioos:station:wmo:SIPF1:1,2019-09-06T20:45:00Z,27.8620,-80.4450,8.0,33.53,11111222 
FIT,ioos:station:wmo:SIPF1:1,2019-09-06T21:45:00Z,27.8620,-80.4450,8.0,29.36,11111222 
FIT,ioos:station:wmo:SIPF1:1,2019-09-06T22:45:00Z,27.8620,-80.4450,8.0,29.29,11111222 
FIT,ioos:station:wmo:SIPF1:1,2019-09-06T23:45:00Z,27.8620,-80.4450,8.0,28.7,11111222 
FIT,ioos:station:wmo:SIPF1:1,2019-09-07T00:45:00Z,27.8620,-80.4450,8.0,27.82,11111222 
FIT,ioos:station:wmo:SIPF1:1,2019-09-07T01:45:00Z,27.8620,-80.4450,8.0,27.55,11111222 
FIT,ioos:station:wmo:SIPF1:1,2019-09-07T02:45:00Z,27.8620,-80.4450,8.0,27.91,11111222 
FIT,ioos:station:wmo:SIPF1:1,2019-09-07T03:45:00Z,27.8620,-80.4450,8.0,27.49,11111222 
FIT,ioos:station:wmo:SIPF1:1,2019-09-07T04:45:00Z,27.8620,-80.4450,8.0,27.12,11111222 
FIT,ioos:station:wmo:SIPF1:1,2019-09-07T05:45:00Z,27.8620,-80.4450,8.0,26.79,11111222 
FIT,ioos:station:wmo:SIPF1:1,2019-09-07T06:45:00Z,27.8620,-80.4450,8.0,26.37,11111222 
FIT,ioos:station:wmo:SIPF1:1,2019-09-07T07:45:00Z,27.8620,-80.4450,8.0,25.92,11111222 
FIT,ioos:station:wmo:SIPF1:1,2019-09-07T08:45:00Z,27.8620,-80.4450,8.0,25.68,11111222 
FIT,ioos:station:wmo:SIPF1:1,2019-09-07T09:45:00Z,27.8620,-80.4450,8.0,25.29,11111222 
FIT,ioos:station:wmo:SIPF1:1,2019-09-07T10:45:00Z,27.8620,-80.4450,8.0,25.06,11111222 
FIT,ioos:station:wmo:SIPF1:1,2019-09-07T11:45:00Z,27.8620,-80.4450,8.0,25.49,11111222 
FIT,ioos:station:wmo:SIPF1:1,2019-09-07T12:45:00Z,27.8620,-80.4450,8.0,29.98,11111222 
FIT,ioos:station:wmo:SIPF1:1,2019-09-07T13:45:00Z,27.8620,-80.4450,8.0,31.39,11111222 
FIT,ioos:station:wmo:SIPF1:1,2019-09-07T14:45:00Z,27.8620,-80.4450,8.0,31.89,11111222 
FIT,ioos:station:wmo:SIPF1:1,2019-09-07T15:45:00Z,27.8620,-80.4450,8.0,28.44,11111222 
FIT,ioos:station:wmo:SIPF1:1,2019-09-07T16:45:00Z,27.8620,-80.4450,8.0,28.48,11111222 
FIT,ioos:station:wmo:SIPF1:1,2019-09-07T17:45:00Z,27.8620,-80.4450,8.0,28.17,11111222 
FIT,ioos:station:wmo:SIPF1:1,2019-09-07T18:45:00Z,27.8620,-80.4450,8.0,28.22,11111222 
FIT,ioos:station:wmo:SIPF1:1,2019-09-07T19:45:00Z,27.8620,-80.4450,8.0,28.23,11111222 
FIT,ioos:station:wmo:SIPF1:1,2019-09-07T20:45:00Z,27.8620,-80.4450,8.0,28.19,11111222 
FIT,ioos:station:wmo:SIPF1:1,2019-09-07T21:45:00Z,27.8620,-80.4450,8.0,28.4,11111222 
FIT,ioos:station:wmo:SIPF1:1,2019-09-07T22:45:00Z,27.8620,-80.4450,8.0,28.38,11111222 
FIT,ioos:station:wmo:SIPF1:1,2019-09-07T23:45:00Z,27.8620,-80.4450,8.0,28.05,11111222 
FIT,ioos:station:wmo:SIPF1:1,2019-09-08T00:45:00Z,27.8620,-80.4450,8.0,27.92,11111222 
FIT,ioos:station:wmo:SIPF1:1,2019-09-08T01:45:00Z,27.8620,-80.4450,8.0,27.92,11111222 
FIT,ioos:station:wmo:SIPF1:1,2019-09-08T02:45:00Z,27.8620,-80.4450,8.0,27.83,11111222 
FIT,ioos:station:wmo:SIPF1:1,2019-09-08T03:45:00Z,27.8620,-80.4450,8.0,27.78,11111222 
FIT,ioos:station:wmo:SIPF1:1,2019-09-08T04:45:00Z,27.8620,-80.4450,8.0,27.58,11111222 
FIT,ioos:station:wmo:SIPF1:1,2019-09-08T05:45:00Z,27.8620,-80.4450,8.0,27.42,11111222 
FIT,ioos:station:wmo:SIPF1:1,2019-09-08T06:45:00Z,27.8620,-80.4450,8.0,26.95,11111222 
FIT,ioos:station:wmo:SIPF1:1,2019-09-08T07:45:00Z,27.8620,-80.4450,8.0,25.75,11111222 
FIT,ioos:station:wmo:SIPF1:1,2019-09-08T08:45:00Z,27.8620,-80.4450,8.0,24.95,11111222 
FIT,ioos:station:wmo:SIPF1:1,2019-09-08T09:45:00Z,27.8620,-80.4450,8.0,25.02,11111222 
FIT,ioos:station:wmo:SIPF1:1,2019-09-08T10:45:00Z,27.8620,-80.4450,8.0,24.8,11111222 
FIT,ioos:station:wmo:SIPF1:1,2019-09-08T11:45:00Z,27.8620,-80.4450,8.0,25.0,11111222 
FIT,ioos:station:wmo:SIPF1:1,2019-09-08T12:45:00Z,27.8620,-80.4450,8.0,26.51,11111222 
FIT,ioos:station:wmo:SIPF1:1,2019-09-08T13:45:00Z,27.8620,-80.4450,8.0,28.64,11111222 
FIT,ioos:station:wmo:SIPF1:1,2019-09-08T14:45:00Z,27.8620,-80.4450,8.0,30.78,11111222 
FIT,ioos:station:wmo:SIPF1:1,2019-09-08T15:45:00Z,27.8620,-80.4450,8.0,32.2,11111222 
FIT,ioos:station:wmo:SIPF1:1,2019-09-08T16:45:00Z,27.8620,-80.4450,8.0,31.92,11111222 
FIT,ioos:station:wmo:SIPF1:1,2019-09-08T17:45:00Z,27.8620,-80.4450,8.0,29.17,11111222 
FIT,ioos:station:wmo:SIPF1:1,2019-09-08T18:45:00Z,27.8620,-80.4450,8.0,28.57,11111222 
FIT,ioos:station:wmo:SIPF1:1,2019-09-08T19:45:00Z,27.8620,-80.4450,8.0,28.64,11111222 
FIT,ioos:station:wmo:SIPF1:1,2019-09-08T20:45:00Z,27.8620,-80.4450,8.0,28.49,11111222 
FIT,ioos:station:wmo:SIPF1:1,2019-09-08T21:45:00Z,27.8620,-80.4450,8.0,28.57,11111222 
FIT,ioos:station:wmo:SIPF1:1,2019-09-08T22:45:00Z,27.8620,-80.4450,8.0,28.47,11111222 
FIT,ioos:station:wmo:SIPF1:1,2019-09-08T23:45:00Z,27.8620,-80.4450,8.0,28.21,11111222 
FIT,ioos:station:wmo:SIPF1:1,2019-09-09T00:45:00Z,27.8620,-80.4450,8.0,28.02,11111222 
FIT,ioos:station:wmo:SIPF1:1,2019-09-09T01:45:00Z,27.8620,-80.4450,8.0,28.03,11111222 
FIT,ioos:station:wmo:SIPF1:1,2019-09-09T02:45:00Z,27.8620,-80.4450,8.0,27.89,11111222 
FIT,ioos:station:wmo:SIPF1:1,2019-09-09T03:45:00Z,27.8620,-80.4450,8.0,27.81,11111222 
FIT,ioos:station:wmo:SIPF1:1,2019-09-09T04:45:00Z,27.8620,-80.4450,8.0,27.71,11111222 
FIT,ioos:station:wmo:SIPF1:1,2019-09-09T05:45:00Z,27.8620,-80.4450,8.0,27.64,11111222 
FIT,ioos:station:wmo:SIPF1:1,2019-09-09T06:45:00Z,27.8620,-80.4450,8.0,27.53,11111222 
FIT,ioos:station:wmo:SIPF1:1,2019-09-09T07:45:00Z,27.8620,-80.4450,8.0,26.75,11111222 
FIT,ioos:station:wmo:SIPF1:1,2019-09-09T08:45:00Z,27.8620,-80.4450,8.0,26.45,11111222 
FIT,ioos:station:wmo:SIPF1:1,2019-09-09T09:45:00Z,27.8620,-80.4450,8.0,26.02,11111222 
FIT,ioos:station:wmo:SIPF1:1,2019-09-09T10:45:00Z,27.8620,-80.4450,8.0,25.94,11111222 
FIT,ioos:station:wmo:SIPF1:1,2019-09-09T11:45:00Z,27.8620,-80.4450,8.0,26.4,11111222 
FIT,ioos:station:wmo:SIPF1:1,2019-09-09T12:45:00Z,27.8620,-80.4450,8.0,30.07,11111222 
FIT,ioos:station:wmo:SIPF1:1,2019-09-09T13:45:00Z,27.8620,-80.4450,8.0,31.0,11111222 
FIT,ioos:station:wmo:SIPF1:1,2019-09-09T14:30:00Z,27.8620,-80.4450,8.0,29.38,11111222 
FIT,ioos:station:wmo:SIPF1:1,2019-09-09T15:45:00Z,27.8620,-80.4450,8.0,28.98,11111222 
FIT,ioos:station:wmo:SIPF1:1,2019-09-09T16:45:00Z,27.8620,-80.4450,8.0,29.87,11111222 
FIT,ioos:station:wmo:SIPF1:1,2019-09-09T17:45:00Z,27.8620,-80.4450,8.0,28.34,11111222 
FIT,ioos:station:wmo:SIPF1:1,2019-09-09T21:45:00Z,27.8620,-80.4450,8.0,28.81,11111222 
FIT,ioos:station:wmo:SIPF1:1,2019-09-09T22:45:00Z,27.8620,-80.4450,8.0,28.61,11111222 
FIT,ioos:station:wmo:SIPF1:1,2019-09-09T23:45:00Z,27.8620,-80.4450,8.0,28.17,11111222 
FIT,ioos:station:wmo:SIPF1:1,2019-09-10T00:45:00Z,27.8620,-80.4450,8.0,28.03,11111222 
FIT,ioos:station:wmo:SIPF1:1,2019-09-10T01:45:00Z,27.8620,-80.4450,8.0,27.99,11111222 
FIT,ioos:station:wmo:SIPF1:1,2019-09-10T02:45:00Z,27.8620,-80.4450,8.0,27.8,11111222 
FIT,ioos:station:wmo:SIPF1:1,2019-09-10T03:45:00Z,27.8620,-80.4450,8.0,27.7,11111222 
FIT,ioos:station:wmo:SIPF1:1,2019-09-10T04:45:00Z,27.8620,-80.4450,8.0,27.62,11111222 
FIT,ioos:station:wmo:SIPF1:1,2019-09-10T05:45:00Z,27.8620,-80.4450,8.0,27.56,11111222 
FIT,ioos:station:wmo:SIPF1:1,2019-09-10T06:45:00Z,27.8620,-80.4450,8.0,27.47,11111222 
FIT,ioos:station:wmo:SIPF1:1,2019-09-10T07:45:00Z,27.8620,-80.4450,8.0,27.36,11111222 
FIT,ioos:station:wmo:SIPF1:1,2019-09-10T08:45:00Z,27.8620,-80.4450,8.0,27.28,11111222 
FIT,ioos:station:wmo:SIPF1:1,2019-09-10T09:45:00Z,27.8620,-80.4450,8.0,27.41,11111222 
FIT,ioos:station:wmo:SIPF1:1,2019-09-10T10:45:00Z,27.8620,-80.4450,8.0,27.28,11111222 
FIT,ioos:station:wmo:SIPF1:1,2019-09-10T11:45:00Z,27.8620,-80.4450,8.0,27.61,11111222 
FIT,ioos:station:wmo:SIPF1:1,2019-09-10T12:45:00Z,27.8620,-80.4450,8.0,28.13,11111222 
FIT,ioos:station:wmo:SIPF1:1,2019-09-10T13:45:00Z,27.8620,-80.4450,8.0,28.28,11111222 
FIT,ioos:station:wmo:SIPF1:1,2019-09-10T14:45:00Z,27.8620,-80.4450,8.0,28.72,11111222 
FIT,ioos:station:wmo:SIPF1:1,2019-09-10T15:45:00Z,27.8620,-80.4450,8.0,28.42,11111222 
FIT,ioos:station:wmo:SIPF1:1,2019-09-10T16:45:00Z,27.8620,-80.4450,8.0,28.41,11111222 
FIT,ioos:station:wmo:SIPF1:1,2019-09-10T17:45:00Z,27.8620,-80.4450,8.0,27.98,11111222 
FIT,ioos:station:wmo:SIPF1:1,2019-09-10T18:45:00Z,27.8620,-80.4450,8.0,28.0,11111222 
FIT,ioos:station:wmo:SIPF1:1,2019-09-10T19:45:00Z,27.8620,-80.4450,8.0,27.75,11111222 
FIT,ioos:station:wmo:SIPF1:1,2019-09-10T20:45:00Z,27.8620,-80.4450,8.0,28.05,11111222 
FIT,ioos:station:wmo:SIPF1:1,2019-09-10T21:45:00Z,27.8620,-80.4450,8.0,26.09,11111222 
FIT,ioos:station:wmo:SIPF1:1,2019-09-10T22:45:00Z,27.8620,-80.4450,8.0,27.48,11111222 
FIT,ioos:station:wmo:SIPF1:1,2019-09-10T23:45:00Z,27.8620,-80.4450,8.0,27.44,11111222 
FIT,ioos:station:wmo:SIPF1:1,2019-09-11T00:45:00Z,27.8620,-80.4450,8.0,27.87,11111222 
FIT,ioos:station:wmo:SIPF1:1,2019-09-11T01:45:00Z,27.8620,-80.4450,8.0,25.74,11111222 
FIT,ioos:station:wmo:SIPF1:1,2019-09-11T02:45:00Z,27.8620,-80.4450,8.0,27.52,11111222 
FIT,ioos:station:wmo:SIPF1:1,2019-09-11T03:45:00Z,27.8620,-80.4450,8.0,27.77,11111222 
FIT,ioos:station:wmo:SIPF1:1,2019-09-11T04:45:00Z,27.8620,-80.4450,8.0,27.8,11111222 
FIT,ioos:station:wmo:SIPF1:1,2019-09-11T05:45:00Z,27.8620,-80.4450,8.0,27.72,11111222 
FIT,ioos:station:wmo:SIPF1:1,2019-09-11T06:45:00Z,27.8620,-80.4450,8.0,27.69,11111222 
FIT,ioos:station:wmo:SIPF1:1,2019-09-11T07:45:00Z,27.8620,-80.4450,8.0,27.3,11111222 
FIT,ioos:station:wmo:SIPF1:1,2019-09-11T08:45:00Z,27.8620,-80.4450,8.0,27.42,11111222 
FIT,ioos:station:wmo:SIPF1:1,2019-09-11T09:45:00Z,27.8620,-80.4450,8.0,25.22,11111222 
FIT,ioos:station:wmo:SIPF1:1,2019-09-11T10:45:00Z,27.8620,-80.4450,8.0,27.19,11111222 
FIT,ioos:station:wmo:SIPF1:1,2019-09-11T11:45:00Z,27.8620,-80.4450,8.0,27.55,11111222 
FIT,ioos:station:wmo:SIPF1:1,2019-09-11T12:45:00Z,27.8620,-80.4450,8.0,27.89,11111222 
FIT,ioos:station:wmo:SIPF1:1,2019-09-11T13:45:00Z,27.8620,-80.4450,8.0,27.91,11111222 
FIT,ioos:station:wmo:SIPF1:1,2019-09-11T14:45:00Z,27.8620,-80.4450,8.0,28.12,11111222 
FIT,ioos:station:wmo:SIPF1:1,2019-09-11T15:45:00Z,27.8620,-80.4450,8.0,28.17,11111222 
FIT,ioos:station:wmo:SIPF1:1,2019-09-11T16:45:00Z,27.8620,-80.4450,8.0,28.19,11111222 
FIT,ioos:station:wmo:SIPF1:1,2019-09-11T17:15:00Z,27.8620,-80.4450,8.0,27.98,11111222 
FIT,ioos:station:wmo:SIPF1:1,2019-09-11T18:00:00Z,27.8620,-80.4450,8.0,27.99,11111222 
FIT,ioos:station:wmo:SIPF1:1,2019-09-11T19:45:00Z,27.8620,-80.4450,8.0,28.0,11111222 
FIT,ioos:station:wmo:SIPF1:1,2019-09-11T20:45:00Z,27.8620,-80.4450,8.0,26.17,11111222 
FIT,ioos:station:wmo:SIPF1:1,2019-09-11T21:45:00Z,27.8620,-80.4450,8.0,28.04,11111222 
FIT,ioos:station:wmo:SIPF1:1,2019-09-11T22:45:00Z,27.8620,-80.4450,8.0,27.99,11111222 
FIT,ioos:station:wmo:SIPF1:1,2019-09-11T23:45:00Z,27.8620,-80.4450,8.0,27.91,11111222 
FIT,ioos:station:wmo:SIPF1:1,2019-09-12T00:45:00Z,27.8620,-80.4450,8.0,27.84,11111222 
FIT,ioos:station:wmo:SIPF1:1,2019-09-12T01:30:00Z,27.8620,-80.4450,8.0,27.65,11111222 
FIT,ioos:station:wmo:SIPF1:1,2019-09-12T02:45:00Z,27.8620,-80.4450,8.0,27.76,11111222 
FIT,ioos:station:wmo:SIPF1:1,2019-09-12T03:45:00Z,27.8620,-80.4450,8.0,27.66,11111222 
FIT,ioos:station:wmo:SIPF1:1,2019-09-12T04:45:00Z,27.8620,-80.4450,8.0,27.65,11111222 
FIT,ioos:station:wmo:SIPF1:1,2019-09-12T05:45:00Z,27.8620,-80.4450,8.0,27.53,11111222 
FIT,ioos:station:wmo:SIPF1:1,2019-09-12T06:45:00Z,27.8620,-80.4450,8.0,27.48,11111222 
FIT,ioos:station:wmo:SIPF1:1,2019-09-12T07:45:00Z,27.8620,-80.4450,8.0,27.45,11111222 
FIT,ioos:station:wmo:SIPF1:1,2019-09-12T08:45:00Z,27.8620,-80.4450,8.0,27.38,11111222 
FIT,ioos:station:wmo:SIPF1:1,2019-09-12T09:45:00Z,27.8620,-80.4450,8.0,27.46,11111222 
FIT,ioos:station:wmo:SIPF1:1,2019-09-12T10:45:00Z,27.8620,-80.4450,8.0,27.51,11111222 
FIT,ioos:station:wmo:SIPF1:1,2019-09-12T11:45:00Z,27.8620,-80.4450,8.0,27.69,11111222 
FIT,ioos:station:wmo:SIPF1:1,2019-09-12T12:45:00Z,27.8620,-80.4450,8.0,27.92,11111222 
FIT,ioos:station:wmo:SIPF1:1,2019-09-12T13:45:00Z,27.8620,-80.4450,8.0,28.08,11111222 
FIT,ioos:station:wmo:SIPF1:1,2019-09-12T14:45:00Z,27.8620,-80.4450,8.0,27.89,11111222 
FIT,ioos:station:wmo:SIPF1:1,2019-09-12T15:45:00Z,27.8620,-80.4450,8.0,28.27,11111222 
FIT,ioos:station:wmo:SIPF1:1,2019-09-13T19:45:00Z,27.8620,-80.4450,8.0,28.16,11111222 